Location: Winthrop
(48.4780°N, 120.1850°W)
Time: 18:34:59
(UTC-08:00)

Transit 2A - Visible Passes

Search period start: 30 November 2023 00:00
Search period end: 10 December 2023 00:00
Orbit: 600 x 953 km, 66.7° (Epoch: 29 November)

Date Brightness Start Highest point End Pass type
(mag) Time Alt. Az. Time Alt. Az. Time Alt. Az.
30 Nov 7.5 18:16:40 10° W 18:20:46 26° NW 18:23:33 15° N visible
01 Dec 7.1 17:41:09 10° WSW 17:45:40 34° NW 17:49:37 11° NNE visible
01 Dec 8.4 19:29:11 10° NNW 19:30:02 11° NNW 19:30:02 11° NNW visible
02 Dec 6.7 17:05:48 10° WSW 17:10:38 46° NW 17:15:05 10° NNE visible
02 Dec 8.1 18:52:43 10° NW 18:54:50 13° NNW 18:56:04 12° N visible
03 Dec 8.0 18:16:40 10° WNW 18:19:34 16° NNW 18:22:05 11° N visible
04 Dec 7.8 17:40:49 10° W 17:44:21 20° NW 17:47:42 10° NNE visible
05 Dec 7.5 17:05:08 10° W 17:09:11 25° NW 17:12:59 10° NNE visible
06 Dec 8.2 18:17:46 10° NNW 18:18:33 10° NNW 18:19:19 10° N visible
07 Dec 8.0 17:41:12 10° NW 17:43:14 13° NNW 17:45:12 10° N visible
08 Dec 7.9 17:05:08 10° WNW 17:07:57 15° NNW 17:10:40 10° N visible
